Tracking 29606 objects as of 18-Sep-2024
HD Live streaming from Space Station
objects crossing your sky now

FENGYUN 1C DEB

Track FENGYUN 1C DEB now!
10-day predictions


NORAD ID: 31929
Int'l Code: 1999-025CME
Perigee: 736.6 km
Apogee: 845.5 km
Inclination: 98.7 °
Period: 100.5 minutes
Semi major axis: 7162 km
RCS: 0.0033 m2 (small)
Launch date: May 10, 1999
Source: People's Republic of China (PRC)
Launch site: Taiyaun Space Center, China (TSC)

Note: This is SATELLITE DEBRIS
Your satellite tracking list
Your tracking list is empty




NASA's NSSDC Master Catalog

Two Line Element Set (TLE):
1 31929U 99025CME 24262.13045677  .00004159  00000-0  15066-2 0  9997
2 31929  98.7473  19.3602 0076028 300.5759  58.7939 14.32346115903358
Source of the keplerian elements: AFSPC